Location: *
(52.2090°N, 4.1550°W)
Time: 04:55:42
(UTC+00:00)

Helios 1A - Pass Details

Date: 19 July 2019
Orbit: 585 x 603 km, 98.2° (Epoch: 18 August)

Event Time Altitude Azimuth Distance (km) Brightness Sun altitude
Exits shadow 23:40:55 21° 216° (SW) 1,338 4.4 -16.5°
Maximum altitude 23:42:56 33° 263° (W) 1,010 4.1 -16.5°
Drops below altitude 10° 23:46:43 10° 328° (NNW) 1,924 6.6 -16.6°
Sets 23:49:04 0° 339° (NNW) 2,828 8.0 -16.7°
